Tracking 28790 objects as of 19-Apr-2024
HD Live streaming from Space Station
objects crossing your sky now

RADUGA 31

Track RADUGA 31 now!
RADUGA 31 is classified as:


NORAD ID: 23010
Int'l Code: 1994-012A
Perigee: 35,785.1 km
Apogee: 35,824.4 km
Inclination: 14.5 °
Period: 1,436.7 minutes
Semi major axis: 42175 km
RCS: 3.1622 m2 (large)
Launch date: February 18, 1994
Source: Commonwealth of Independent States (former USSR) (CIS)
Launch site: TYURATAM MISSILE AND SPACE COMPLEX (TTMTR)
Your satellite tracking list
Your tracking list is empty




NASA's NSSDC Master Catalog

Two Line Element Set (TLE):
1 23010U 94012A   24109.75904674  .00000084  00000-0  00000-0 0  9992
2 23010  14.4519 354.1544 0004652 121.4012  55.6215  1.00232510110433
Source of the keplerian elements: AFSPC